TimeEDT,TemperatureF,Dew PointF,Humidity,Sea Level PressureIn,VisibilityMPH,Wind Direction,Wind SpeedMPH,Gust SpeedMPH,PrecipitationIn,Events,Conditions,WindDirDegrees,DateUTC
12:52 AM,46.9,46.0,97,30.18,10.0,Calm,Calm,-,N/A,,Clear,0,2013-08-07 04:52:00
1:31 AM,46.4,44.6,93,30.18,10.0,Calm,Calm,-,N/A,,Scattered Clouds,0,2013-08-07 05:31:00
1:40 AM,46.4,44.6,93,30.18,10.0,Calm,Calm,-,N/A,,Mostly Cloudy,0,2013-08-07 05:40:00
1:52 AM,46.0,45.0,96,30.19,10.0,Calm,Calm,-,N/A,,Mostly Cloudy,0,2013-08-07 05:52:00
2:46 AM,46.4,44.6,93,30.18,1.0,Calm,Calm,-,N/A,,Mist,0,2013-08-07 06:46:00
2:49 AM,46.4,44.6,93,30.18,0.2,Calm,Calm,-,N/A,Fog,Fog,0,2013-08-07 06:49:00
2:52 AM,46.9,46.0,97,30.19,0.2,Calm,Calm,-,N/A,Fog,Fog,0,2013-08-07 06:52:00
3:05 AM,44.6,44.6,100,30.18,1.0,Calm,Calm,-,N/A,,Mist,0,2013-08-07 07:05:00
3:07 AM,44.6,44.6,100,30.18,2.5,Calm,Calm,-,N/A,,Overcast,0,2013-08-07 07:07:00
3:28 AM,44.6,42.8,93,30.18,1.0,Calm,Calm,-,N/A,,Mist,0,2013-08-07 07:28:00
3:33 AM,44.6,42.8,93,30.19,0.2,Calm,Calm,-,N/A,Fog,Fog,0,2013-08-07 07:33:00
3:52 AM,44.1,43.0,96,30.20,0.2,Calm,Calm,-,N/A,Fog,Fog,0,2013-08-07 07:52:00
4:52 AM,45.0,45.0,100,30.21,0.2,Calm,Calm,-,N/A,Fog,Fog,0,2013-08-07 08:52:00
5:52 AM,45.0,45.0,100,30.21,0.2,Calm,Calm,-,N/A,Fog,Fog,0,2013-08-07 09:52:00
6:52 AM,46.0,46.0,100,30.22,0.2,Calm,Calm,-,N/A,Fog,Fog,0,2013-08-07 10:52:00
7:24 AM,48.2,48.2,100,30.21,0.2,Calm,Calm,-,N/A,Fog,Fog,0,2013-08-07 11:24:00
7:52 AM,50.0,48.9,96,30.21,0.5,Calm,Calm,-,N/A,Fog,Fog,0,2013-08-07 11:52:00
8:00 AM,50.0,48.2,94,30.21,0.2,Calm,Calm,-,N/A,Fog,Fog,0,2013-08-07 12:00:00
8:17 AM,51.8,51.8,100,30.20,1.0,Calm,Calm,-,N/A,,Mist,0,2013-08-07 12:17:00
8:22 AM,51.8,51.8,100,30.20,2.0,Calm,Calm,-,N/A,,Mostly Cloudy,0,2013-08-07 12:22:00
8:26 AM,53.6,51.8,94,30.20,3.0,Calm,Calm,-,N/A,,Scattered Clouds,0,2013-08-07 12:26:00
8:52 AM,57.0,53.1,87,30.21,10.0,Calm,Calm,-,N/A,,Clear,0,2013-08-07 12:52:00
9:52 AM,66.9,52.0,59,30.19,10.0,Calm,Calm,-,N/A,,Clear,0,2013-08-07 13:52:00
10:52 AM,73.0,55.0,53,30.17,10.0,Calm,Calm,-,N/A,,Clear,0,2013-08-07 14:52:00
11:52 AM,75.9,55.0,48,30.15,10.0,South,6.9,-,N/A,,Partly Cloudy,170,2013-08-07 15:52:00
12:52 PM,75.9,55.9,50,30.15,10.0,SSE,9.2,-,N/A,,Mostly Cloudy,150,2013-08-07 16:52:00
1:52 PM,73.0,57.9,59,30.15,10.0,SE,9.2,-,N/A,,Mostly Cloudy,140,2013-08-07 17:52:00
2:52 PM,75.0,54.0,48,30.14,10.0,SSE,8.1,-,N/A,,Overcast,160,2013-08-07 18:52:00
3:52 PM,73.9,55.9,53,30.13,10.0,South,9.2,16.1,N/A,,Overcast,170,2013-08-07 19:52:00
4:52 PM,75.0,57.0,53,30.11,10.0,SE,10.4,17.3,N/A,,Partly Cloudy,140,2013-08-07 20:52:00
5:52 PM,72.0,57.0,59,30.12,10.0,SSE,9.2,-,N/A,,Scattered Clouds,160,2013-08-07 21:52:00
6:52 PM,70.0,57.9,65,30.11,10.0,SE,10.4,-,N/A,,Clear,140,2013-08-07 22:52:00
7:52 PM,68.0,57.9,70,30.10,10.0,SSE,3.5,-,N/A,,Clear,160,2013-08-07 23:52:00
8:52 PM,66.0,57.0,73,30.10,10.0,SSE,8.1,-,N/A,,Clear,160,2013-08-08 00:52:00
9:52 PM,66.0,55.9,70,30.10,10.0,SSE,8.1,-,N/A,,Partly Cloudy,160,2013-08-08 01:52:00
10:52 PM,64.9,55.0,70,30.09,10.0,SSE,3.5,-,N/A,,Mostly Cloudy,160,2013-08-08 02:52:00
11:52 PM,64.0,55.9,75,30.08,10.0,Calm,Calm,-,N/A,,Overcast,0,2013-08-08 03:52:00